Regional Weather Roundup
Issued by NWS Midland/Odessa, TX

Skip options and go directly to product.
Home | Oldest Version | Previous Version | Current Version | All | Text Only | Save Text | Print | Product List | Glossary Off

Skip product version selection by date and time.   

544
ASUS44 KMAF 030810
RWRMAF
MIDLAND AREA WEATHER ROUNDUP
NATIONAL WEATHER SERVICE MIDLAND TX
300 AM CDT THU SEP 03 2015

...IN SOUTHWEST TEXAS AND SOUTHEAST NEW MEXICO...

CITY           SKY/WX    TMP DP  RH WIND       PRES   REMARKS
ALPINE         PTCLDY    63  53  69 W6        30.15F
ANDREWS        FAIR      70  56  61 SW3       30.02F
ARTESIA        CLOUDY    77  54  44 SE9       30.03F
BIG SPRING     CLEAR     73  53  50 SE7       30.01F
CARLSBAD       MOCLDY    77  52  41 SW7       30.01S
DRYDEN           N/A     74  60  61 VRB5      29.96F
FORT STOCKTON  CLEAR     70  57  63 S7        30.01S
GUAD PASS      MOCLDY    75  46  35 SW6       30.17F
HOBBS            N/A     66  54  63 S3        30.06F
MARFA          PTCLDY    57  48  72 NE3       30.14S
MIDLAND AIRPK  CLEAR     77  55  46 SW5       30.00F
MIDLAND INTL   CLEAR     75  55  49 SW6       30.00F
ODESSA         CLEAR     76  55  48 SW8       30.01F
PECOS          CLEAR     70  53  54 E6        29.97F
PRESIDIO       NOT AVBL
SEMINOLE       CLEAR     66  54  63 S5        30.04S
SNYDER         PTCLDY    75  57  53 SE13      29.98F
WINK           CLEAR     73  54  51 SE6       29.98F
$$
...OTHER STATIONS IN TEXAS...

CITY           SKY/WX    TMP DP  RH WIND       PRES   REMARKS
ABILENE        CLEAR     75  61  61 S9        29.98F
AMARILLO       PTCLDY    73  54  51 S14       30.02F
AUSTIN         PTCLDY    70  68  93 CALM      29.95F
BROWNSVILLE    CLEAR     77  75  93 SE3       29.90F
CORPUS CHRISTI PTCLDY    76  73  91 S5        29.90F
DALLAS FTW     PTCLDY    80  66  62 S8        29.94F
DEL RIO        CLEAR     80  65  59 E8        29.92S
EL PASO        CLOUDY    80  51  36 NW9       30.08R
HOUSTON INT    PTCLDY    73  72  96 NE5       29.94F
LUBBOCK        MOCLDY    73  53  49 S10       30.01F
SAN ANGELO     PTCLDY    73  59  61 SE6       29.97F
SAN ANTONIO    PTCLDY    77  71  82 S6        29.96F
WACO           CLEAR     76  69  79 S8        29.95S
WICHITA FALLS  NOT AVBL
$$
...OTHER LOCATIONS IN NEW MEXICO...

CITY           SKY/WX    TMP DP  RH WIND       PRES   REMARKS
ALAMAGORDO     MOCLDY    77  50  38 NE10      30.09F
ALBUQUERQUE    CLOUDY    69  49  48 E5        30.18F
CANNON AFB     MOCLDY    70  53  54 W8        30.09R
CLOVIS         MOCLDY    72  52  49 SW7       30.09S
HOLLOMAN AFB   CLOUDY    76  53  44 N12       30.07F
ROSWELL        CLOUDY    79  52  38 NE5       30.05F
RUIDOSO        CLOUDY    63  48  59 N6        30.29F
SANTA FE       MOCLDY    64  47  53 CALM      30.24S
TRUTH OR CONSE CLOUDY    67  56  67 NW8       30.12F
TUCUMCARI      PTCLDY    72  50  45 SW9       30.01F
$$

USA.gov is the U.S. government's official web portal to all federal, state and local government web resources and services.